Regional Weather Roundup
Issued by NWS

Home | Current Version | Previous Version | Graphics & Text | Print | Product List | Glossary On
Versions: 1 2 3 4 5 6 7 8 9 10 11 12 13 14 15 16 17 18 19 20 21 22 23 24 25 26 27 28 29 30 31 32 33 34 35 36 37 38 39 40 41 42 43 44 45 46 47 48 49 50
000
ASUS43 KIND 271709
RWRIN

WEATHER ROUNDUP FOR INDIANA
NATIONAL WEATHER SERVICE INDIANAPOLIS IN
1200 PM EST FRI FEB 27 2015

NOTE: "FAIR" INDICATES FEW OR NO CLOUDS BELOW 12,000 FEET WITH NO
SIGNIFICANT WEATHER AND/OR OBSTRUCTIONS TO VISIBILITY.

* - STATION DOES NOT REPORT WEATHER SUCH AS PRECIPITATION OR FOG.

+ - STATION NOT QUALITY CONTROLLED BY THE NATIONAL WEATHER SERVICE.
    USE DATA WITH CAUTION...ESPECIALLY DEWPOINT AND RELATIVE
    HUMIDITY OBSERVATIONS.

INZ001>003-010>013-019-020-271800-
NORTHWEST INDIANA

CITY           SKY/WX    TMP DP  RH WIND       PRES   REMARKS
GARY /AIRPORT/ SUNNY     14  -9  34 W14       30.62R WCI  -1
KNOX *+          N/A     10 -11  37 SW3       30.60R
LA PORTE +     SUNNY     16   2  52 W6        30.59R WCI   8
MICHIGAN CITY+ SUNNY     16  -6  38 W9        30.60R WCI   4
MONTICELLO +   SUNNY      7  -1  69 W5        30.62R WCI  -2
RENSSELAER +   SUNNY     14   3  62 SW5       30.63R WCI   6
VALPARAISO     SUNNY     13  -4  46 W7        30.60R WCI   3

$$

LMZ046-743>745-271800-
SOUTHERN LAKE MICHIGAN

STATION/POSITION TIME  TEMP WIND        PRES
                       AIR  DIR/SP/G
                 (UTC) (F)  (DEG/KT/KT) (MB)
MICHIGAN CITY    1700   11  220/ 11/ 14   N/A

$$

INZ004-005-014>016-021>024-271800-
NORTH CENTRAL INDIANA

CITY           SKY/WX    TMP DP  RH WIND       PRES   REMARKS
ELKHART        SUNNY     16  -6  38 SW7       30.59R WCI   6
GOSHEN         SUNNY     12  -4  48 W6        30.58R WCI   3
LOGANSPORT +   SUNNY      9   1  72 SW7       30.62R WCI  -3
PERU/GRISSOM   SUNNY      8   1  72 W8        30.59R WCI  -4
ROCHESTER +    SUNNY     18   5  57 SW5       30.61R WCI  11
SOUTH BEND     PTSUNNY   15   2  56 SW10      30.59R WCI   2
WARSAW +       SUNNY     16   0  48 W5        30.58R WCI   9

$$

INZ006>009-017-018-025>027-271800-
NORTHEAST INDIANA

CITY           SKY/WX    TMP DP  RH WIND       PRES   REMARKS
ANGOLA *+      SUNNY     14  -8  37 NW5       30.55R WCI   6
AUBURN +       SUNNY     18  -6  35 W6        30.57R WCI   9
FORT WAYNE     MOSUNNY   15  -3  44 W6        30.59R WCI   6
HUNTINGTON +   MOSUNNY   16   0  49 N3        30.59R

$$

INZ028-029-035-036-043>045-051>053-271800-
WEST CENTRAL INDIANA

CITY           SKY/WX    TMP DP  RH WIND       PRES   REMARKS
CRAWFORDSVL +  SUNNY     11  -7  44 NW9       30.61S WCI  -2
GREENCASTLE +  SUNNY     14  -6  41 N6        30.62S WCI   5
LAFAYETTE      SUNNY     13  -2  51 NW8       30.63R WCI   2
TERRE HAUTE    SUNNY     14  -3  47 N6        30.65S WCI   5

$$

INZ030>032-037>040-046>048-054>057-064-065-271800-
CENTRAL INDIANA

CITY           SKY/WX    TMP DP  RH WIND       PRES   REMARKS
ANDERSON       MOSUNNY   16   3  57 NW12      30.60R WCI   3
CP ATTERBURY + SUNNY     19   5  53 N7        30.62S WCI  10
FRANKFORT +    SUNNY     14   4  64 W8        30.62R WCI   2
GREENWOOD *+   SUNNY     16   0  48 W7        30.61R WCI   6
INDIANAPOLIS   MOSUNNY   15  -1  49 W8        30.60R WCI   4
-EAGLE CREEK   SUNNY     14   0  53 NW9       30.61R WCI   2
KOKOMO *+      SUNNY     12   3  67 NW8       30.60R WCI   1
MARION +       SUNNY     13   4  68 W9        30.60R WCI   1
MT COMFORT *+  SUNNY     19  -6  32 CALM      30.60R
SHELBYVILLE    SUNNY     14   5  67 SW3       30.61R
ZIONSVILLE +   SUNNY     13   0  56 W5        30.61R WCI   5

$$

INZ033-034-041-042-049-050-058-059-271800-
EAST CENTRAL INDIANA

CITY           SKY/WX    TMP DP  RH WIND       PRES   REMARKS
MUNCIE         SUNNY     13   5  70 W8        30.59R WCI   2

$$

INZ060-061-067>069-081>083-085>088-271800-
SOUTHWEST INDIANA

CITY           SKY/WX    TMP DP  RH WIND       PRES   REMARKS
EVANSVILLE     MOSUNNY   20   9  62 VRB5      30.65F WCI  13
HUNTINGBURG *+ SUNNY     19   9  63 N7        30.64F WCI  10
WASHINGTON +   SUNNY     14  -1  53 NW3       30.65F

$$

INZ062-063-066-070>080-084-089>092-271800-
SOUTH CENTRAL AND SOUTHEAST INDIANA

CITY           SKY/WX    TMP DP  RH WIND       PRES   REMARKS
BLOOMINGTON    MOSUNNY   17   1  49 NE3       30.60S
NORTH VERNON + SUNNY     16   3  57 CALM      30.62R
SEYMOUR +      SUNNY     21   7  53 CALM      30.64R

$$




USA.gov is the U.S. government's official web portal to all federal, state and local government web resources and services.